Location: Alexandria
(38.8050°N, 77.0470°W)
Time: 06:41:30
(UTC-04:00)

ISS - Pass Details

Date: 09 February 2018
Orbit: 403 x 408 km, 51.6° (Epoch: 22 September)

Event Time Altitude Azimuth Distance (km) Brightness Sun altitude
Rises 18:06:07 0° 317° (NW) 2,321 0.5 -5.9°
Reaches altitude 10° 18:08:35 10° 335° (NNW) 1,461 -0.9 -6.4°
Maximum altitude 18:11:03 20° 25° (NNE) 1,018 -2.1 -6.8°
Drops below altitude 10° 18:13:32 10° 74° (ENE) 1,462 -1.7 -7.3°
Enters shadow 18:13:38 10° 75° (ENE) 1,490 -1.7 -7.3°
